カタログに戻る

STARLINK-37935

運用中通信SSO
NORAD 69562·PAYLOAD·🇺🇸 United States

打ち上げ Jun 15, 2026 から Vandenberg Space Force Base

Loading…

次のパス (今後24時間)

TLE

最新Source: CelesTrak SupGP

元期: Sep 15, 2026, 03:41 UTC

1 69562C 26135S   26258.15395833 -.00058561  00000+0 -18181-2 0  2580
2 69562  97.2834 285.9513 0001069 104.6762 236.2757 15.33464355    10

AllMySatでSTARLINK-37935をリアルタイム追跡

Download on the App Store